Content
SEND FEEDBACK

Daily
Averages
Monthly
Summary
Canada

MONTREAL, QUEBEC


Home > North America > Canada > Quebec
Elevation: 118 feet     Latitude: 45 28N     Longitude: 073 45W

WEATHER
 
SELECT A DAY
Number of Records: 203,406;   Date Range: 1/1/95 - 12/19/14
 
SHARE

PRINT THIS DATA

[ ← Previous Day ]
WEATHER ALMANAC - JULY 15, 2013
[ Next Day → ]
[ °C ]   °F
We're sorry. There is no daily almanac available for Montreal, Quebec on July 15, 2013.
WEATHER BY HOUR - JULY 15, 2013
[ °C ]   °F
Local TimeTemperatureDewpointHumidityBarometerVisibilityWind DirectionWind SpeedGust SpeedPrecipitationEventsConditions
1:00 AM75.2 °F69.8 °F83 %30.19 in15.0 miSW (220°)5.8 mphClear
2:00 AM75.0 °F70.0 °F79 %30.19 in15.0 miSW (230°)11.2 mph
2:00 AM75.2 °F69.8 °F83 %30.19 in15.0 miSW (220°)6.9 mphClear
3:00 AM73.4 °F69.8 °F88 %30.19 in15.0 miSSW (200°)6.9 mphClear
4:00 AM73.4 °F69.8 °F88 %30.19 in15.0 miSSW (210°)5.8 mphClear
5:00 AM71.6 °F69.8 °F94 %30.19 in15.0 miSW (220°)8.1 mphClear
6:00 AM73.4 °F68.0 °F83 %30.19 in15.0 miSW (230°)9.2 mphPartly Cloudy
7:00 AM75.2 °F68.0 °F78 %30.20 in15.0 miWSW (240°)10.4 mphMostly Cloudy
8:00 AM76.0 °F69.0 °F75 %30.20 in15.0 miSW (230°)9.2 mphScattered Clouds
8:00 AM75.2 °F69.8 °F83 %30.20 in15.0 miSW (220°)8.1 mphPartly Cloudy
9:00 AM77.0 °F69.8 °F78 %30.20 in15.0 miSW (230°)10.4 mphClear
10:00 AM80.6 °F71.6 °F74 %30.19 in15.0 miSW (220°)10.4 mphClear
11:00 AM84.2 °F71.6 °F66 %30.19 in15.0 miSSW (210°)9.2 mphClear
12:00 PM87.8 °F62.6 °F43 %30.18 in15.0 miWest (270°)12.7 mph18.4 mphPartly Cloudy
1:00 PM87.8 °F62.6 °F43 %30.17 in15.0 miWSW (250°)13.8 mphPartly Cloudy
2:00 PM88.0 °F68.0 °F42 %30.16 in15.0 miSW (220°)12.7 mphScattered Clouds
2:00 PM87.8 °F68.0 °F52 %30.16 in15.0 miSW (220°)13.8 mph20.7 mphPartly Cloudy
3:00 PM89.6 °F66.2 °F46 %30.15 in15.0 miWest (260°)11.5 mphPartly Cloudy
4:00 PM91.4 °F66.2 °F43 %30.13 in15.0 miWSW (240°)16.1 mphPartly Cloudy
5:00 PM89.6 °F66.2 °F46 %30.13 in15.0 miWest (270°)17.3 mphPartly Cloudy
6:00 PM89.6 °F66.2 °F46 %30.12 in15.0 miWSW (250°)17.3 mph24.2 mphPartly Cloudy
7:00 PM89.6 °F64.4 °F43 %30.13 in15.0 miWest (270°)13.8 mphPartly Cloudy
8:00 PM87.0 °F65.0 °F37 %30.13 in15.0 miWest (280°)10.4 mphScattered Clouds
8:00 PM86.0 °F64.4 °F48 %30.13 in15.0 miWest (280°)9.2 mphPartly Cloudy
9:00 PM84.2 °F64.4 °F51 %30.14 in15.0 miWest (270°)6.9 mphClear
10:00 PM82.4 °F64.4 °F54 %30.15 in15.0 miWest (270°)6.9 mphClear
11:00 PM78.8 °F66.2 °F65 %30.16 in15.0 miWest (280°)6.9 mphPartly Cloudy
Hourly data recorded from CYUL, located miles away from Montreal, Quebec







STORIES FROM OUR PARTNERS